Weather Roundup
Issued by NWS Springfield, MO

Home | Current Version | Previous Version | Text Only | Print | Product List | Glossary On
Versions: 1 2 3 4 5 6 7 8 9 10 11 12 13 14 15 16 17 18 19 20 21 22 23 24 25 26 27 28 29 30 31 32 33 34 35 36 37 38 39 40 41 42 43 44 45 46 47 48 49 50
077
NZUS99 KSGF 100257
HRRSGF

HOURLY WEATHER
NATIONAL WEATHER SERVICE SPRINGFIELD MO
900 PM CST FRI DEC 09 2016

......SGF CWA......

CITY           SKY/WX    TMP DP  RH WIND       PRES   REMARKS
SPRINGFIELD    CLOUDY    30  14  51 SE5       30.50F WCI  25
JOPLIN         CLOUDY    31  15  52 CALM      30.53S
WEST PLAINS    CLOUDY    26  15  63 CALM      30.55R
ROLLA          CLOUDY    19  10  68 E3        30.52F
BRANSON        CLOUDY    28  16  59 SE3       30.53R

......SURROUNDING SGF CWA......

CITY           SKY/WX    TMP DP  RH WIND       PRES   REMARKS
CHANUTE        CLOUDY    29  15  56 SE5       30.51F WCI  24
PARSONS        CLOUDY    30  15  53 CALM      30.53S
COFFEYVILLE    CLOUDY    30  18  60 CALM      30.53S
EMPORIA        CLOUDY    27  13  55 S7        30.48F WCI  19
HARRISON AR    CLOUDY    29  15  56 SE5       30.52R WCI  24

......KANSAS AND MISSOURI......

CITY           SKY/WX    TMP DP  RH WIND       PRES   REMARKS
KANSAS CTY INT CLOUDY    26  11  52 SE5       30.52S WCI  20
SEDALIA        CLOUDY    26  10  50 E5        30.54F WCI  20
ST JOSEPH      CLOUDY    26  11  52 SE5       30.54S WCI  20
ST LOUIS       PTCLDY    24  13  62 W3        30.59R
WICHITA        CLOUDY    23  12  62 SE6       30.45F WCI  16
TOPEKA         CLOUDY    28  15  58 SE5       30.52R WCI  23
OLATHE         CLOUDY    25  12  58 SE6       30.51S WCI  18

......TENNESSEE......

CITY           SKY/WX    TMP DP  RH WIND       PRES   REMARKS
MEMPHIS        NOT AVBL
NASHVILLE      CLEAR     27  17  66 N3        30.57R

......ARKANSAS.......

CITY           SKY/WX    TMP DP  RH WIND       PRES   REMARKS
FAYETTEVILLE   CLOUDY    33  12  41 CALM      30.51S
FT SMITH       CLOUDY    35  17  47 E7        30.55R WCI  29
LITTLE ROCK    CLEAR     28  23  81 CALM      30.60S

......OKLAHOMA.......

CITY           SKY/WX    TMP DP  RH WIND       PRES   REMARKS
TULSA          CLOUDY    33  16  49 SE5       30.52F WCI  29
PONCA CITY     CLOUDY    28  14  55 SE6       30.49S WCI  22
MCALESTER      CLOUDY    37  16  42 VRB3      30.53R
OKLAHOMA CITY  CLOUDY    33  15  47 SE8       30.47R WCI  26

......IOWA............

CITY           SKY/WX    TMP DP  RH WIND       PRES   REMARKS
DES MOINES     NOT AVBL
QUAD CITIES    PTCLDY    20  13  74 SW3       30.54F

......ILLINOIS........

CITY           SKY/WX    TMP DP  RH WIND       PRES   REMARKS
QUINCY         NOT AVBL
CHICAGO        MOCLDY    19  12  74 W6        30.49F WCI  11




USA.gov is the U.S. government's official web portal to all federal, state and local government web resources and services.